{"data":{"norad_id":49758,"epoch":"2026-09-20T04:46:42.312576Z","epoch_age_seconds":71221,"freshness":"FRESH","line1":"1 49758U 21115AL  26263.19910084  .00000368  00000+0  22031-4 0  9992","line2":"2 49758  53.1610 330.7954 0001114  84.3969 275.7161 15.34394160265242","mean_motion":15.3439416,"eccentricity":0.0001114,"inclination_deg":53.161,"raan_deg":330.7954,"arg_perigee_deg":84.3969,"mean_anomaly_deg":275.7161,"bstar":2.2031e-5,"rev_number":26524,"period_min":93.848115271763,"perigee_km":461.95852643647,"apogee_km":463.4826695093,"semimajor_km":6840.8575979729,"source":"CELESTRAK","updated_at":"2026-09-20T09:00:39.410303Z"}}